Location: Cicognara
(44.9500°N, 10.4667°E)
Time: 15:09:07
(UTC+00:00)

Cosmos 2369 Rocket - Pass Details

Date: 20 June 2021
Orbit: 828 x 854 km, 71.0° (Epoch: 02 August)

Event Time Altitude Azimuth Distance (km) Brightness Sun altitude
Rises 22:29:11 0° 341° (NNW) 3,433 6.9 -20.6°
Reaches altitude 10° 22:32:04 10° 354° (N) 2,494 5.8 -20.7°
Maximum altitude 22:36:50 26° 50° (NE) 1,617 3.9 -20.9°
Enters shadow 22:41:24 11° 105° (ESE) 2,432 4.3 -21.0°
